Woodinville, Washington, United States (98072)
Lat: 47.75N, Lon: 122.16W
Wx Zone: WAZ505
Local Info
Past Weather Observations for Yesterday

NOTE: This archive is for the closest National Weather Service station to Woodinville. Information may differ from the station used for current weather conditions.

Click here for Long-term Archive

Time Weather Temperature Dewpoint Humidity Pressure Winds Precip Visibility
23:53
Clear
43°F / 6°C 36°F / 2°C 76% 29.95 in
(1014 mb)
N 9.2 mph
(N 15 kph)
- 10SM
22:53
Clear
45°F / 7°C 37°F / 3°C 76% 29.95 in
(1014 mb)
N 6.9 mph
(N 11 kph)
- 10SM
21:53
Mostly Cloudy
46°F / 8°C 37°F / 3°C 71% 29.92 in
(1013 mb)
N 6.9 mph
(N 11 kph)
- 10SM
20:53
Partly Cloudy
46°F / 8°C 39°F / 4°C 76% 29.89 in
(1012 mb)
N 9.2 mph
(N 15 kph)
- 10SM
19:53
Partly Cloudy
46°F / 8°C 39°F / 4°C 76% 29.86 in
(1011 mb)
NNE 5.8 mph
(NNE 9 kph)
- 10SM
18:53
Overcast
46°F / 8°C 41°F / 5°C 82% 29.83 in
(1010 mb)
N 6.9 mph
(N 11 kph)
- 10SM
17:53
Overcast
48°F / 9°C 39°F / 4°C 71% 29.8 in
(1009 mb)
N 10.4 mph
(N 17 kph)
- 10SM
16:53
Overcast
48°F / 9°C 41°F / 5°C 76% 29.8 in
(1009 mb)
N 6.9 mph
(N 11 kph)
- 10SM
15:53
Overcast
48°F / 9°C 43°F / 6°C 82% 29.8 in
(1009 mb)
N 5.8 mph
(N 9 kph)
- 10SM
14:53
Overcast
48°F / 9°C 43°F / 6°C 82% 29.77 in
(1008 mb)
N 6.9 mph
(N 11 kph)
- 10SM
14:01
Overcast
46°F / 8°C 45°F / 7°C 93% 29.77 in
(1008 mb)
NNW 9.2 mph
(NNW 15 kph)
- 10SM
13:53
Overcast
46°F / 8°C 45°F / 7°C 93% 29.77 in
(1008 mb)
N 10.4 mph
(N 17 kph)
- 10SM
13:19
Overcast
Fog And Mist
46°F / 8°C 45°F / 7°C 93% 29.77 in
(1008 mb)
N 9.2 mph
(N 15 kph)
- 1SM
12:53
Overcast
46°F / 8°C 45°F / 7°C 93% 29.77 in
(1008 mb)
N 8.1 mph
(N 13 kph)
0.00 in
(0.00 mm)
9SM
11:53
Overcast
Light Rain
46°F / 8°C 43°F / 6°C 87% 29.77 in
(1008 mb)
N 8.1 mph
(N 13 kph)
0.00 in
(0.00 mm)
8SM
11:27
Overcast
Light Rain
46°F / 8°C 45°F / 7°C 93% 29.77 in
(1008 mb)
N 6.9 mph
(N 11 kph)
0.00 in
(0.00 mm)
8SM
11:12
Overcast
45°F / 7°C 43°F / 6°C 93% 29.77 in
(1008 mb)
N 8.1 mph
(N 13 kph)
0.00 in
(0.00 mm)
10SM
10:53
Overcast
Light Rain
45°F / 7°C 43°F / 6°C 93% 29.77 in
(1008 mb)
NNE 6.9 mph
(NNE 11 kph)
0.04 in
(1.02 mm)
10SM
09:53
Overcast
Light Rain
45°F / 7°C 43°F / 6°C 93% 29.77 in
(1008 mb)
NNE 10.4 mph
(NNE 17 kph)
0.05 in
(1.27 mm)
3SM
09:44
Overcast
Light Rain
45°F / 7°C 43°F / 6°C 93% 29.77 in
(1008 mb)
NNE 6.9 mph
(NNE 11 kph)
0.04 in
(1.02 mm)
3SM
09:19
Overcast
Light Rain
45°F / 7°C 43°F / 6°C 93% 29.77 in
(1008 mb)
NNE 5.8 mph
(NNE 9 kph)
0.02 in
(0.51 mm)
5SM
08:53
Overcast
Light Rain
45°F / 7°C 43°F / 6°C 93% 29.77 in
(1008 mb)
NNE 6.9 mph
(NNE 11 kph)
0.04 in
(1.02 mm)
2 1/2SM
08:48
Overcast
Light Rain
45°F / 7°C 43°F / 6°C 93% 29.77 in
(1008 mb)
NNE 6.9 mph
(NNE 11 kph)
0.04 in
(1.02 mm)
2 1/2SM
07:53
Overcast
Light Rain
45°F / 7°C 43°F / 6°C 93% 29.74 in
(1007 mb)
NE 5.8 mph
(NE 9 kph)
0.04 in
(1.02 mm)
5SM
06:53
Overcast
Light Rain
45°F / 7°C 43°F / 6°C 93% 29.74 in
(1007 mb)
NE 4.6 mph
(NE 7 kph)
0.06 in
(1.52 mm)
5SM
06:22
Overcast
Light Rain
45°F / 7°C 43°F / 6°C 93% 29.74 in
(1007 mb)
NE 4.6 mph
(NE 7 kph)
0.02 in
(0.51 mm)
5SM
05:53
Overcast
Light Rain
45°F / 7°C 43°F / 6°C 93% 29.74 in
(1007 mb)
NE 5.8 mph
(NE 9 kph)
0.07 in
(1.78 mm)
6SM
05:49
Overcast
Light Rain
45°F / 7°C 43°F / 6°C 93% 29.74 in
(1007 mb)
NE 4.6 mph
(NE 7 kph)
0.07 in
(1.78 mm)
6SM
04:53
Overcast
Light Rain
45°F / 7°C 43°F / 6°C 93% 29.74 in
(1007 mb)
E 4.6 mph
(E 7 kph)
0.07 in
(1.78 mm)
6SM
03:53
Overcast
Light Rain
45°F / 7°C 43°F / 6°C 93% 29.74 in
(1007 mb)
SE 4.6 mph
(SE 7 kph)
0.06 in
(1.52 mm)
6SM
02:53
Overcast
Light Rain
45°F / 7°C 43°F / 6°C 93% 29.77 in
(1008 mb)
SE 3.5 mph
(SE 6 kph)
0.08 in
(2.03 mm)
5SM
01:53
Overcast
Light Rain
46°F / 8°C 43°F / 6°C 87% 29.77 in
(1008 mb)
E 10.4 mph
(E 17 kph)
0.05 in
(1.27 mm)
10SM
00:53
Overcast
Light Rain
46°F / 8°C 43°F / 6°C 87% 29.8 in
(1009 mb)
ESE 9.2 mph
(ESE 15 kph)
0.08 in
(2.03 mm)
6SM
Time Weather Temperature Dewpoint Humidity Pressure Winds Precip Visibility


Weather for websites

WeatherForYou.com, LLC is not responsible for any damages or problems caused by this service. Current weather conditions are obtained from the closest station including government and personal stations which may have varying degrees of accuracy. Weather forecasts are derived from the NOAA NDFD. Like all things, this site belongs to Jesus Christ... He just trusts me to maintain it. If you have any questions or comments email webmaster@weatherforyou.com

Copyright © 2015, WeatherForYou.com LLC. All rights reserved.